Time,TemperatureF,DewpointF,PressureIn,WindDirection,WindDirectionDegrees,WindSpeedMPH,WindSpeedGustMPH,Humidity,HourlyPrecipIn,Conditions,Clouds,dailyrainin,SoftwareType,DateUTC
2013-06-11 00:01:00,59.2,59.2,29.84,SW,217,0.0,1.0,100,0.00,,,0.00,Wunderground v.1.15,2013-06-11 04:01:00,
2013-06-11 00:02:00,59.2,59.2,29.84,SSW,194,0.0,3.0,100,0.00,,,0.00,Wunderground v.1.15,2013-06-11 04:02:00,
2013-06-11 00:05:00,59.2,59.2,29.84,South,182,0.0,3.0,100,0.00,,,0.00,Wunderground v.1.15,2013-06-11 04:05:00,
2013-06-11 00:06:00,59.2,59.2,29.84,South,182,0.0,3.0,100,0.00,,,0.00,Wunderground v.1.15,2013-06-11 04:06:00,
2013-06-11 00:11:00,59.2,59.2,29.83,East,93,1.0,1.0,100,0.00,,,0.00,Wunderground v.1.15,2013-06-11 04:11:00,
2013-06-11 00:16:00,59.3,59.3,29.83,North,350,1.0,2.0,100,0.00,,,0.00,Wunderground v.1.15,2013-06-11 04:16:00,
2013-06-11 00:21:00,59.3,59.3,29.83,ENE,78,0.0,0.0,100,0.00,,,0.01,Wunderground v.1.15,2013-06-11 04:21:00,
2013-06-11 00:26:00,59.3,59.3,29.82,NW,315,1.0,1.0,100,0.15,,,0.02,Wunderground v.1.15,2013-06-11 04:26:00,
2013-06-11 00:31:00,59.3,59.3,29.82,NW,314,1.0,1.0,100,0.32,,,0.04,Wunderground v.1.15,2013-06-11 04:31:00,
2013-06-11 00:36:00,59.4,59.4,29.81,WSW,251,0.0,1.0,100,0.09,,,0.04,Wunderground v.1.15,2013-06-11 04:36:00,
2013-06-11 00:42:00,59.4,59.4,29.81,West,269,0.0,2.0,100,0.20,,,0.06,Wunderground v.1.15,2013-06-11 04:42:00,
2013-06-11 00:47:00,59.4,59.4,29.81,West,269,0.0,2.0,100,0.12,,,0.07,Wunderground v.1.15,2013-06-11 04:47:00,
2013-06-11 00:52:00,59.5,59.5,29.81,NNW,347,0.0,0.0,100,1.23,,,0.16,Wunderground v.1.15,2013-06-11 04:52:00,
2013-06-11 00:57:00,59.4,59.4,29.80,North,360,0.0,0.0,100,0.91,,,0.24,Wunderground v.1.15,2013-06-11 04:57:00,
2013-06-11 01:03:00,59.5,59.5,29.80,West,267,0.0,2.0,100,0.15,,,0.30,Wunderground v.1.15,2013-06-11 05:03:00,
2013-06-11 01:09:00,59.5,59.5,29.79,West,267,0.0,2.0,100,0.06,,,0.30,Wunderground v.1.15,2013-06-11 05:09:00,
2013-06-11 01:14:00,59.5,59.5,29.79,WNW,286,0.0,0.0,100,0.05,,,0.31,Wunderground v.1.15,2013-06-11 05:14:00,
2013-06-11 01:19:00,59.5,59.5,29.78,WNW,286,0.0,0.0,100,0.05,,,0.31,Wunderground v.1.15,2013-06-11 05:19:00,
2013-06-11 01:24:00,59.6,59.6,29.78,WNW,289,0.0,4.0,100,0.04,,,0.31,Wunderground v.1.15,2013-06-11 05:24:00,
2013-06-11 01:29:00,59.6,59.6,29.78,WNW,286,0.0,4.0,100,0.00,,,0.32,Wunderground v.1.15,2013-06-11 05:29:00,
2013-06-11 01:34:00,59.7,59.7,29.78,WNW,286,0.0,0.0,100,0.00,,,0.32,Wunderground v.1.15,2013-06-11 05:34:00,
2013-06-11 01:40:00,59.7,59.7,29.78,WNW,286,0.0,0.0,100,0.00,,,0.32,Wunderground v.1.15,2013-06-11 05:40:00,
2013-06-11 01:45:00,59.8,59.8,29.78,WNW,286,0.0,0.0,100,0.00,,,0.32,Wunderground v.1.15,2013-06-11 05:45:00,
2013-06-11 01:50:00,59.8,59.8,29.78,West,277,0.0,0.0,100,0.00,,,0.32,Wunderground v.1.15,2013-06-11 05:50:00,
2013-06-11 01:55:00,59.8,59.8,29.77,West,277,0.0,0.0,100,0.00,,,0.32,Wunderground v.1.15,2013-06-11 05:55:00,
2013-06-11 02:00:00,59.9,59.9,29.78,West,277,0.0,0.0,100,0.00,,,0.32,Wunderground v.1.15,2013-06-11 06:00:00,
2013-06-11 02:06:00,59.9,59.9,29.77,West,277,0.0,0.0,100,0.00,,,0.32,Wunderground v.1.15,2013-06-11 06:06:00,
2013-06-11 02:11:00,60.0,60.0,29.77,West,277,0.0,1.0,100,0.00,,,0.33,Wunderground v.1.15,2013-06-11 06:11:00,
2013-06-11 02:16:00,60.0,60.0,29.77,West,277,0.0,1.0,100,0.00,,,0.33,Wunderground v.1.15,2013-06-11 06:16:00,
2013-06-11 02:21:00,60.1,60.1,29.77,West,277,0.0,0.0,100,0.00,,,0.33,Wunderground v.1.15,2013-06-11 06:21:00,
2013-06-11 02:27:00,60.1,60.1,29.76,West,277,0.0,0.0,100,0.00,,,0.33,Wunderground v.1.15,2013-06-11 06:27:00,
2013-06-11 02:32:00,60.1,60.1,29.76,West,277,0.0,0.0,100,0.00,,,0.34,Wunderground v.1.15,2013-06-11 06:32:00,
2013-06-11 02:37:00,60.1,60.1,29.76,South,174,0.0,0.0,100,0.00,,,0.34,Wunderground v.1.15,2013-06-11 06:37:00,
2013-06-11 02:42:00,60.1,60.1,29.75,South,174,0.0,0.0,100,0.00,,,0.34,Wunderground v.1.15,2013-06-11 06:42:00,
2013-06-11 02:47:00,60.2,60.2,29.74,SW,225,0.0,0.0,100,0.00,,,0.34,Wunderground v.1.15,2013-06-11 06:47:00,
2013-06-11 02:53:00,60.2,60.2,29.74,North,360,0.0,0.0,100,0.00,,,0.34,Wunderground v.1.15,2013-06-11 06:53:00,
2013-06-11 02:59:00,60.3,60.3,29.74,North,360,0.0,1.0,100,0.00,,,0.34,Wunderground v.1.15,2013-06-11 06:59:00,
2013-06-11 03:04:00,60.3,60.3,29.74,NNW,329,0.0,2.0,100,0.00,,,0.34,Wunderground v.1.15,2013-06-11 07:04:00,
2013-06-11 03:09:00,60.3,60.3,29.74,NNW,329,0.0,2.0,100,0.00,,,0.34,Wunderground v.1.15,2013-06-11 07:09:00,
2013-06-11 03:14:00,60.3,60.3,29.74,NNW,329,0.0,1.0,100,0.00,,,0.34,Wunderground v.1.15,2013-06-11 07:14:00,
2013-06-11 03:19:00,60.3,60.3,29.74,NNW,329,0.0,1.0,100,0.00,,,0.34,Wunderground v.1.15,2013-06-11 07:19:00,
2013-06-11 03:24:00,60.4,60.4,29.74,NNW,329,0.0,0.0,100,0.00,,,0.34,Wunderground v.1.15,2013-06-11 07:24:00,
2013-06-11 03:30:00,60.4,60.4,29.73,NNW,329,0.0,0.0,100,0.00,,,0.34,Wunderground v.1.15,2013-06-11 07:30:00,
2013-06-11 03:35:00,60.4,60.4,29.73,NNW,329,0.0,0.0,100,0.00,,,0.34,Wunderground v.1.15,2013-06-11 07:35:00,
2013-06-11 03:40:00,60.5,60.5,29.72,NNW,329,0.0,0.0,100,0.00,,,0.35,Wunderground v.1.15,2013-06-11 07:40:00,
2013-06-11 03:45:00,60.5,60.5,29.72,NNW,329,0.0,0.0,100,0.00,,,0.35,Wunderground v.1.15,2013-06-11 07:45:00,
2013-06-11 03:50:00,60.6,60.6,29.72,NNW,329,0.0,0.0,100,0.00,,,0.35,Wunderground v.1.15,2013-06-11 07:50:00,
2013-06-11 03:55:00,60.6,60.6,29.72,NNW,329,0.0,0.0,100,0.00,,,0.35,Wunderground v.1.15,2013-06-11 07:55:00,
2013-06-11 04:00:00,60.7,60.7,29.72,NW,309,0.0,0.0,100,0.00,,,0.35,Wunderground v.1.15,2013-06-11 08:00:00,
2013-06-11 04:06:00,60.7,60.7,29.72,NW,309,0.0,0.0,100,0.00,,,0.35,Wunderground v.1.15,2013-06-11 08:06:00,
2013-06-11 04:12:00,60.7,60.7,29.72,NW,308,0.0,0.0,100,0.00,,,0.35,Wunderground v.1.15,2013-06-11 08:12:00,
2013-06-11 04:17:00,60.8,60.8,29.72,NW,308,0.0,0.0,100,0.00,,,0.35,Wunderground v.1.15,2013-06-11 08:17:00,
2013-06-11 04:22:00,60.8,60.8,29.72,NW,308,0.0,0.0,100,0.00,,,0.35,Wunderground v.1.15,2013-06-11 08:22:00,
2013-06-11 04:27:00,60.8,60.8,29.72,NW,308,0.0,0.0,100,0.00,,,0.36,Wunderground v.1.15,2013-06-11 08:27:00,
2013-06-11 04:32:00,60.8,60.8,29.72,NW,308,0.0,0.0,100,0.11,,,0.37,Wunderground v.1.15,2013-06-11 08:32:00,
2013-06-11 04:37:00,60.9,60.9,29.72,NW,308,0.0,0.0,100,0.11,,,0.37,Wunderground v.1.15,2013-06-11 08:37:00,
2013-06-11 04:42:00,61.0,61.0,29.72,NW,308,0.0,0.0,100,0.08,,,0.38,Wunderground v.1.15,2013-06-11 08:42:00,
2013-06-11 04:47:00,61.0,61.0,29.72,NW,308,0.0,0.0,100,0.08,,,0.38,Wunderground v.1.15,2013-06-11 08:47:00,
2013-06-11 04:53:00,61.0,61.0,29.72,NW,308,0.0,3.0,100,0.04,,,0.38,Wunderground v.1.15,2013-06-11 08:53:00,
2013-06-11 04:58:00,61.1,61.1,29.72,West,259,0.0,3.0,100,0.00,,,0.38,Wunderground v.1.15,2013-06-11 08:58:00,
2013-06-11 05:04:00,61.1,61.1,29.72,West,259,0.0,0.0,100,0.00,,,0.38,Wunderground v.1.15,2013-06-11 09:04:00,
2013-06-11 05:09:00,61.1,61.1,29.72,West,259,0.0,0.0,100,0.00,,,0.38,Wunderground v.1.15,2013-06-11 09:09:00,
2013-06-11 05:14:00,61.1,61.1,29.72,West,259,0.0,0.0,100,0.00,,,0.38,Wunderground v.1.15,2013-06-11 09:14:00,
2013-06-11 05:19:00,61.2,61.2,29.72,West,259,0.0,0.0,100,0.00,,,0.38,Wunderground v.1.15,2013-06-11 09:19:00,
2013-06-11 05:24:00,61.2,61.2,29.72,West,259,0.0,0.0,100,0.00,,,0.38,Wunderground v.1.15,2013-06-11 09:24:00,
2013-06-11 05:29:00,61.2,61.2,29.72,West,259,0.0,0.0,100,0.00,,,0.38,Wunderground v.1.15,2013-06-11 09:29:00,
2013-06-11 05:34:00,61.2,61.2,29.71,West,259,0.0,0.0,100,0.00,,,0.38,Wunderground v.1.15,2013-06-11 09:34:00,
2013-06-11 05:39:00,61.3,61.3,29.71,West,259,0.0,0.0,100,0.00,,,0.38,Wunderground v.1.15,2013-06-11 09:39:00,
2013-06-11 05:44:00,61.3,61.3,29.71,West,259,0.0,0.0,100,0.00,,,0.38,Wunderground v.1.15,2013-06-11 09:44:00,
2013-06-11 05:49:00,61.3,61.3,29.71,West,259,0.0,0.0,100,0.00,,,0.38,Wunderground v.1.15,2013-06-11 09:49:00,
2013-06-11 05:54:00,61.3,61.3,29.72,West,259,0.0,0.0,100,0.00,,,0.38,Wunderground v.1.15,2013-06-11 09:54:00,
2013-06-11 05:59:00,61.4,61.4,29.72,West,259,0.0,0.0,100,0.00,,,0.38,Wunderground v.1.15,2013-06-11 09:59:00,
2013-06-11 06:05:00,61.5,61.5,29.72,West,259,0.0,0.0,100,0.00,,,0.38,Wunderground v.1.15,2013-06-11 10:05:00,
2013-06-11 06:10:00,61.5,61.5,29.72,West,259,0.0,0.0,100,0.00,,,0.38,Wunderground v.1.15,2013-06-11 10:10:00,
2013-06-11 06:15:00,61.5,61.5,29.72,West,259,0.0,0.0,100,0.00,,,0.38,Wunderground v.1.15,2013-06-11 10:15:00,
2013-06-11 06:20:00,61.5,61.5,29.72,West,259,0.0,0.0,100,0.00,,,0.38,Wunderground v.1.15,2013-06-11 10:20:00,
2013-06-11 06:25:00,61.5,61.5,29.72,West,259,0.0,0.0,100,0.00,,,0.38,Wunderground v.1.15,2013-06-11 10:25:00,
2013-06-11 06:30:00,61.6,61.6,29.72,West,259,0.0,0.0,100,0.00,,,0.38,Wunderground v.1.15,2013-06-11 10:30:00,
2013-06-11 06:35:00,61.7,61.7,29.72,West,259,0.0,0.0,100,0.00,,,0.38,Wunderground v.1.15,2013-06-11 10:35:00,
2013-06-11 06:40:00,61.8,61.8,29.72,West,259,0.0,0.0,100,0.00,,,0.38,Wunderground v.1.15,2013-06-11 10:40:00,
2013-06-11 06:46:00,61.9,61.9,29.72,West,259,0.0,0.0,100,0.00,,,0.38,Wunderground v.1.15,2013-06-11 10:46:00,
2013-06-11 06:51:00,62.0,62.0,29.72,West,259,0.0,0.0,100,0.00,,,0.38,Wunderground v.1.15,2013-06-11 10:51:00,
2013-06-11 06:56:00,62.1,62.1,29.72,West,259,0.0,0.0,100,0.00,,,0.38,Wunderground v.1.15,2013-06-11 10:56:00,
2013-06-11 07:01:00,62.2,62.2,29.72,West,259,0.0,0.0,100,0.00,,,0.38,Wunderground v.1.15,2013-06-11 11:01:00,
2013-06-11 07:07:00,62.3,62.3,29.71,West,259,0.0,0.0,100,0.00,,,0.38,Wunderground v.1.15,2013-06-11 11:07:00,
2013-06-11 07:12:00,62.4,62.4,29.71,West,259,0.0,0.0,100,0.00,,,0.38,Wunderground v.1.15,2013-06-11 11:12:00,
2013-06-11 07:17:00,62.6,62.6,29.72,West,259,0.0,0.0,100,0.00,,,0.38,Wunderground v.1.15,2013-06-11 11:17:00,
2013-06-11 07:22:00,62.9,62.9,29.72,SSW,207,0.0,0.0,100,0.00,,,0.38,Wunderground v.1.15,2013-06-11 11:22:00,
2013-06-11 07:27:00,63.2,63.2,29.72,SSW,207,0.0,0.0,100,0.00,,,0.38,Wunderground v.1.15,2013-06-11 11:27:00,
2013-06-11 07:33:00,63.5,63.5,29.72,SSW,207,0.0,0.0,100,0.00,,,0.38,Wunderground v.1.15,2013-06-11 11:33:00,
2013-06-11 07:39:00,63.8,63.8,29.72,SSW,207,0.0,1.0,100,0.00,,,0.38,Wunderground v.1.15,2013-06-11 11:39:00,
2013-06-11 07:44:00,64.2,64.2,29.72,SSW,207,0.0,1.0,100,0.00,,,0.38,Wunderground v.1.15,2013-06-11 11:44:00,
2013-06-11 07:50:00,64.6,64.6,29.72,West,275,0.0,0.0,100,0.00,,,0.38,Wunderground v.1.15,2013-06-11 11:50:00,
2013-06-11 07:55:00,65.0,65.0,29.72,West,275,0.0,0.0,100,0.00,,,0.38,Wunderground v.1.15,2013-06-11 11:55:00,
2013-06-11 08:00:00,65.3,65.3,29.72,West,275,0.0,0.0,100,0.00,,,0.38,Wunderground v.1.15,2013-06-11 12:00:00,
2013-06-11 08:06:00,65.5,65.5,29.72,West,275,0.0,0.0,100,0.00,,,0.38,Wunderground v.1.15,2013-06-11 12:06:00,
2013-06-11 08:12:00,65.8,65.8,29.71,West,275,0.0,1.0,100,0.00,,,0.38,Wunderground v.1.15,2013-06-11 12:12:00,
2013-06-11 08:17:00,65.9,65.9,29.72,West,273,0.0,3.0,100,0.00,,,0.38,Wunderground v.1.15,2013-06-11 12:17:00,
2013-06-11 08:22:00,66.0,66.0,29.72,West,273,0.0,0.0,100,0.00,,,0.38,Wunderground v.1.15,2013-06-11 12:22:00,
2013-06-11 08:27:00,66.2,66.2,29.72,WSW,254,1.0,2.0,100,0.00,,,0.38,Wunderground v.1.15,2013-06-11 12:27:00,
2013-06-11 08:34:00,66.2,66.2,29.72,West,269,1.0,2.0,100,0.00,,,0.38,Wunderground v.1.15,2013-06-11 12:34:00,
2013-06-11 08:39:00,66.2,66.2,29.72,WSW,250,1.0,2.0,100,0.00,,,0.38,Wunderground v.1.15,2013-06-11 12:39:00,
2013-06-11 08:45:00,66.3,66.3,29.72,West,276,2.0,3.0,100,0.00,,,0.38,Wunderground v.1.15,2013-06-11 12:45:00,
2013-06-11 08:50:00,66.3,66.3,29.72,West,273,2.0,2.0,100,0.00,,,0.38,Wunderground v.1.15,2013-06-11 12:50:00,
2013-06-11 08:55:00,66.4,66.4,29.72,SW,224,2.0,2.0,100,0.00,,,0.38,Wunderground v.1.15,2013-06-11 12:55:00,
2013-06-11 09:00:00,66.5,66.5,29.72,WNW,302,2.0,2.0,100,0.00,,,0.38,Wunderground v.1.15,2013-06-11 13:00:00,
2013-06-11 09:06:00,66.6,66.6,29.71,WNW,284,1.0,2.0,100,0.00,,,0.38,Wunderground v.1.15,2013-06-11 13:06:00,
2013-06-11 09:11:00,66.9,66.9,29.71,WSW,257,1.0,2.0,100,0.00,,,0.38,Wunderground v.1.15,2013-06-11 13:11:00,
2013-06-11 09:16:00,67.0,67.0,29.71,WSW,248,1.0,2.0,100,0.00,,,0.38,Wunderground v.1.15,2013-06-11 13:16:00,
2013-06-11 09:22:00,67.1,67.1,29.71,SW,234,1.0,3.0,100,0.00,,,0.38,Wunderground v.1.15,2013-06-11 13:22:00,
2013-06-11 09:27:00,67.3,67.3,29.70,WSW,250,1.0,3.0,100,0.00,,,0.38,Wunderground v.1.15,2013-06-11 13:27:00,
2013-06-11 09:34:00,67.4,67.4,29.71,West,271,1.0,1.0,100,0.00,,,0.38,Wunderground v.1.15,2013-06-11 13:34:00,
2013-06-11 09:39:00,67.7,67.7,29.70,West,275,1.0,1.0,100,0.00,,,0.38,Wunderground v.1.15,2013-06-11 13:39:00,
2013-06-11 09:45:00,67.9,67.9,29.70,WSW,241,1.0,3.0,100,0.00,,,0.38,Wunderground v.1.15,2013-06-11 13:45:00,
2013-06-11 09:50:00,68.2,67.9,29.70,WNW,286,1.0,1.0,99,0.00,,,0.38,Wunderground v.1.15,2013-06-11 13:50:00,
2013-06-11 09:55:00,68.5,68.2,29.70,SW,225,1.0,3.0,99,0.00,,,0.38,Wunderground v.1.15,2013-06-11 13:55:00,
2013-06-11 10:00:00,68.7,67.8,29.70,WSW,257,1.0,5.0,97,0.00,,,0.38,Wunderground v.1.15,2013-06-11 14:00:00,
2013-06-11 10:06:00,69.0,67.8,29.70,SW,232,2.0,5.0,96,0.00,,,0.38,Wunderground v.1.15,2013-06-11 14:06:00,
2013-06-11 10:12:00,69.4,68.2,29.70,WSW,255,1.0,3.0,96,0.00,,,0.38,Wunderground v.1.15,2013-06-11 14:12:00,
2013-06-11 10:17:00,69.8,68.3,29.70,WNW,287,1.0,3.0,95,0.00,,,0.38,Wunderground v.1.15,2013-06-11 14:17:00,
2013-06-11 10:22:00,70.3,68.8,29.70,WNW,287,2.0,2.0,95,0.00,,,0.38,Wunderground v.1.15,2013-06-11 14:22:00,
2013-06-11 10:28:00,71.0,68.9,29.70,West,280,1.0,2.0,93,0.00,,,0.38,Wunderground v.1.15,2013-06-11 14:28:00,
2013-06-11 10:33:00,71.6,69.5,29.69,SW,219,2.0,3.0,93,0.00,,,0.38,Wunderground v.1.15,2013-06-11 14:33:00,
2013-06-11 10:38:00,72.2,68.4,29.69,WSW,238,2.0,4.0,88,0.00,,,0.38,Wunderground v.1.15,2013-06-11 14:38:00,
2013-06-11 10:43:00,72.6,69.5,29.69,West,274,2.0,3.0,90,0.00,,,0.38,Wunderground v.1.15,2013-06-11 14:43:00,
2013-06-11 10:48:00,72.9,68.1,29.69,NW,311,2.0,4.0,85,0.00,,,0.38,Wunderground v.1.15,2013-06-11 14:48:00,
2013-06-11 10:54:00,73.1,68.7,29.69,South,169,3.0,10.0,86,0.00,,,0.38,Wunderground v.1.15,2013-06-11 14:54:00,
2013-06-11 10:59:00,73.5,68.7,29.69,WNW,300,2.0,10.0,85,0.00,,,0.38,Wunderground v.1.15,2013-06-11 14:59:00,
2013-06-11 11:04:00,73.9,68.8,29.68,WSW,240,3.0,7.0,84,0.00,,,0.38,Wunderground v.1.15,2013-06-11 15:04:00,
2013-06-11 11:09:00,74.5,68.6,29.68,SSW,201,2.0,7.0,82,0.00,,,0.38,Wunderground v.1.15,2013-06-11 15:09:00,
2013-06-11 11:15:00,75.2,69.3,29.68,SW,228,2.0,5.0,82,0.00,,,0.38,Wunderground v.1.15,2013-06-11 15:15:00,
2013-06-11 11:20:00,75.6,68.6,29.68,WNW,295,2.0,2.0,79,0.00,,,0.38,Wunderground v.1.15,2013-06-11 15:20:00,
2013-06-11 11:25:00,75.8,68.4,29.68,South,180,3.0,4.0,78,0.00,,,0.38,Wunderground v.1.15,2013-06-11 15:25:00,
2013-06-11 11:31:00,76.0,68.3,29.68,South,175,2.0,5.0,77,0.00,,,0.38,Wunderground v.1.15,2013-06-11 15:31:00,
2013-06-11 11:37:00,76.5,68.7,29.68,WNW,293,2.0,5.0,77,0.00,,,0.38,Wunderground v.1.15,2013-06-11 15:37:00,
2013-06-11 11:42:00,76.4,67.1,29.68,WSW,250,2.0,2.0,73,0.00,,,0.38,Wunderground v.1.15,2013-06-11 15:42:00,
2013-06-11 11:48:00,75.7,67.2,29.68,SSW,197,3.0,5.0,75,0.00,,,0.38,Wunderground v.1.15,2013-06-11 15:48:00,
2013-06-11 11:53:00,75.8,68.4,29.67,South,172,2.0,3.0,78,0.00,,,0.38,Wunderground v.1.15,2013-06-11 15:53:00,
2013-06-11 11:58:00,76.4,68.7,29.67,WSW,246,2.0,3.0,77,0.00,,,0.38,Wunderground v.1.15,2013-06-11 15:58:00,
2013-06-11 12:03:00,77.0,68.1,29.67,WSW,257,3.0,4.0,74,0.00,,,0.38,Wunderground v.1.15,2013-06-11 16:03:00,
2013-06-11 12:09:00,77.3,68.0,29.67,WSW,242,3.0,4.0,73,0.00,,,0.38,Wunderground v.1.15,2013-06-11 16:09:00,
2013-06-11 12:14:00,77.3,68.4,29.67,WSW,242,2.0,3.0,74,0.00,,,0.38,Wunderground v.1.15,2013-06-11 16:14:00,
2013-06-11 12:19:00,77.4,68.1,29.67,SW,230,2.0,10.0,73,0.00,,,0.38,Wunderground v.1.15,2013-06-11 16:19:00,
2013-06-11 12:24:00,77.3,68.0,29.67,WSW,258,3.0,3.0,73,0.00,,,0.38,Wunderground v.1.15,2013-06-11 16:24:00,
2013-06-11 12:29:00,77.4,68.5,29.67,WSW,257,2.0,3.0,74,0.00,,,0.38,Wunderground v.1.15,2013-06-11 16:29:00,
2013-06-11 12:35:00,77.7,69.9,29.66,WSW,247,3.0,4.0,77,0.00,,,0.38,Wunderground v.1.15,2013-06-11 16:35:00,
2013-06-11 12:40:00,77.9,69.3,29.66,WSW,258,2.0,2.0,75,0.00,,,0.38,Wunderground v.1.15,2013-06-11 16:40:00,
2013-06-11 12:45:00,78.1,67.1,29.66,SSW,206,2.0,5.0,69,0.00,,,0.38,Wunderground v.1.15,2013-06-11 16:45:00,
2013-06-11 12:50:00,78.3,66.9,29.66,South,182,3.0,3.0,68,0.00,,,0.38,Wunderground v.1.15,2013-06-11 16:50:00,
2013-06-11 12:56:00,78.2,67.6,29.65,South,190,3.0,4.0,70,0.00,,,0.38,Wunderground v.1.15,2013-06-11 16:56:00,
2013-06-11 13:02:00,78.1,67.9,29.65,NW,309,3.0,11.0,71,0.00,,,0.38,Wunderground v.1.15,2013-06-11 17:02:00,
2013-06-11 13:08:00,78.4,69.4,29.65,WSW,246,4.0,11.0,74,0.00,,,0.38,Wunderground v.1.15,2013-06-11 17:08:00,
2013-06-11 13:13:00,78.6,68.8,29.64,West,275,3.0,4.0,72,0.00,,,0.38,Wunderground v.1.15,2013-06-11 17:13:00,
2013-06-11 13:18:00,78.4,68.6,29.64,SW,229,3.0,4.0,72,0.00,,,0.38,Wunderground v.1.15,2013-06-11 17:18:00,
2013-06-11 13:23:00,78.2,68.0,29.64,WSW,240,2.0,7.0,71,0.00,,,0.38,Wunderground v.1.15,2013-06-11 17:23:00,
2013-06-11 13:28:00,78.4,67.8,29.64,SW,231,2.0,7.0,70,0.00,,,0.38,Wunderground v.1.15,2013-06-11 17:28:00,
2013-06-11 13:34:00,78.8,67.3,29.63,SW,217,4.0,11.0,68,0.00,,,0.38,Wunderground v.1.15,2013-06-11 17:34:00,
2013-06-11 13:39:00,79.1,67.6,29.63,ESE,123,4.0,11.0,68,0.00,,,0.38,Wunderground v.1.15,2013-06-11 17:39:00,
2013-06-11 13:44:00,79.2,67.3,29.63,WSW,242,4.0,5.0,67,0.00,,,0.38,Wunderground v.1.15,2013-06-11 17:44:00,
2013-06-11 13:49:00,79.3,65.6,29.63,SSW,211,4.0,5.0,63,0.00,,,0.38,Wunderground v.1.15,2013-06-11 17:49:00,
2013-06-11 13:54:00,78.9,66.1,29.63,SSE,154,3.0,4.0,65,0.00,,,0.38,Wunderground v.1.15,2013-06-11 17:54:00,
2013-06-11 14:00:00,79.1,67.2,29.63,NW,315,3.0,3.0,67,0.00,,,0.38,Wunderground v.1.15,2013-06-11 18:00:00,
2013-06-11 14:06:00,79.4,66.6,29.62,WSW,238,3.0,5.0,65,0.00,,,0.38,Wunderground v.1.15,2013-06-11 18:06:00,
2013-06-11 14:11:00,79.3,66.5,29.62,WNW,296,3.0,7.0,65,0.00,,,0.38,Wunderground v.1.15,2013-06-11 18:11:00,
2013-06-11 14:16:00,79.6,67.7,29.62,SSW,207,3.0,7.0,67,0.00,,,0.38,Wunderground v.1.15,2013-06-11 18:16:00,
2013-06-11 14:21:00,79.7,68.2,29.62,WSW,247,2.0,5.0,68,0.00,,,0.38,Wunderground v.1.15,2013-06-11 18:21:00,
2013-06-11 14:27:00,79.9,67.1,29.61,WNW,294,3.0,8.0,65,0.00,,,0.38,Wunderground v.1.15,2013-06-11 18:27:00,
2013-06-11 14:32:00,79.5,66.3,29.61,West,276,3.0,3.0,64,0.00,,,0.38,Wunderground v.1.15,2013-06-11 18:32:00,
2013-06-11 14:38:00,78.8,67.3,29.61,SW,229,2.0,10.0,68,0.00,,,0.38,Wunderground v.1.15,2013-06-11 18:38:00,
2013-06-11 14:43:00,78.2,66.8,29.61,SW,231,2.0,4.0,68,0.00,,,0.38,Wunderground v.1.15,2013-06-11 18:43:00,
2013-06-11 14:48:00,77.7,65.4,29.61,WSW,245,2.0,4.0,66,0.00,,,0.38,Wunderground v.1.15,2013-06-11 18:48:00,
2013-06-11 14:53:00,77.2,65.8,29.61,SW,227,3.0,6.0,68,0.00,,,0.38,Wunderground v.1.15,2013-06-11 18:53:00,
2013-06-11 14:58:00,76.8,67.5,29.61,WSW,252,2.0,6.0,73,0.65,,,0.42,Wunderground v.1.15,2013-06-11 18:58:00,
2013-06-11 15:03:00,75.1,67.8,29.62,WNW,296,3.0,3.0,78,0.79,,,0.44,Wunderground v.1.15,2013-06-11 19:03:00,
2013-06-11 15:08:00,73.8,68.0,29.62,WNW,283,2.0,6.0,82,0.51,,,0.47,Wunderground v.1.15,2013-06-11 19:08:00,
2013-06-11 15:13:00,72.8,68.0,29.61,WNW,283,2.0,3.0,85,0.17,,,0.48,Wunderground v.1.15,2013-06-11 19:13:00,
2013-06-11 15:19:00,72.0,67.9,29.61,WNW,283,1.0,3.0,87,0.09,,,0.48,Wunderground v.1.15,2013-06-11 19:19:00,
2013-06-11 15:24:00,71.3,67.9,29.61,WNW,283,1.0,3.0,89,0.05,,,0.48,Wunderground v.1.15,2013-06-11 19:24:00,
2013-06-11 15:29:00,70.9,68.1,29.62,West,279,1.0,3.0,91,0.04,,,0.49,Wunderground v.1.15,2013-06-11 19:29:00,
2013-06-11 15:34:00,70.4,67.6,29.61,South,182,2.0,7.0,91,0.13,,,0.50,Wunderground v.1.15,2013-06-11 19:34:00,
2013-06-11 15:40:00,70.4,68.6,29.61,SW,229,1.0,2.0,94,0.06,,,0.50,Wunderground v.1.15,2013-06-11 19:40:00,
2013-06-11 15:45:00,70.6,69.1,29.60,NW,316,1.0,2.0,95,0.04,,,0.50,Wunderground v.1.15,2013-06-11 19:45:00,
2013-06-11 15:51:00,70.7,68.9,29.60,SW,219,1.0,3.0,94,0.00,,,0.50,Wunderground v.1.15,2013-06-11 19:51:00,
2013-06-11 15:56:00,70.9,69.1,29.60,SW,219,0.0,3.0,94,0.00,,,0.50,Wunderground v.1.15,2013-06-11 19:56:00,
2013-06-11 16:02:00,71.1,69.6,29.60,SW,219,0.0,1.0,95,0.00,,,0.50,Wunderground v.1.15,2013-06-11 20:02:00,
2013-06-11 16:07:00,71.2,69.1,29.60,WSW,257,0.0,1.0,93,0.00,,,0.50,Wunderground v.1.15,2013-06-11 20:07:00,
2013-06-11 16:12:00,71.4,69.6,29.60,WSW,257,0.0,2.0,94,0.00,,,0.50,Wunderground v.1.15,2013-06-11 20:12:00,
2013-06-11 16:17:00,71.6,69.8,29.60,West,265,1.0,4.0,94,0.00,,,0.50,Wunderground v.1.15,2013-06-11 20:17:00,
2013-06-11 16:29:00,72.3,69.8,29.59,South,178,1.0,2.0,92,0.00,,,0.50,Wunderground v.1.15,2013-06-11 20:29:00,
2013-06-11 16:34:00,72.6,70.1,29.59,SW,235,1.0,4.0,92,0.00,,,0.50,Wunderground v.1.15,2013-06-11 20:34:00,
2013-06-11 16:39:00,72.9,69.8,29.59,WNW,303,2.0,4.0,90,0.00,,,0.50,Wunderground v.1.15,2013-06-11 20:39:00,
2013-06-11 16:44:00,73.1,69.0,29.59,WNW,284,3.0,6.0,87,0.00,,,0.50,Wunderground v.1.15,2013-06-11 20:44:00,
2013-06-11 16:49:00,73.0,68.9,29.58,WNW,289,3.0,3.0,87,0.00,,,0.50,Wunderground v.1.15,2013-06-11 20:49:00,
2013-06-11 16:55:00,73.0,68.6,29.58,West,259,3.0,6.0,86,0.00,,,0.50,Wunderground v.1.15,2013-06-11 20:55:00,
2013-06-11 17:00:00,72.9,67.8,29.58,WNW,287,3.0,4.0,84,0.00,,,0.50,Wunderground v.1.15,2013-06-11 21:00:00,
2013-06-11 17:06:00,73.0,67.9,29.59,West,279,4.0,4.0,84,0.00,,,0.50,Wunderground v.1.15,2013-06-11 21:06:00,
2013-06-11 17:12:00,73.0,67.5,29.59,West,279,3.0,3.0,83,0.00,,,0.50,Wunderground v.1.15,2013-06-11 21:12:00,
2013-06-11 17:17:00,73.0,67.2,29.59,WNW,293,2.0,4.0,82,0.00,,,0.50,Wunderground v.1.15,2013-06-11 21:17:00,
2013-06-11 17:22:00,73.1,67.3,29.59,West,268,3.0,8.0,82,0.00,,,0.50,Wunderground v.1.15,2013-06-11 21:22:00,
2013-06-11 17:27:00,73.2,67.4,29.58,West,271,3.0,8.0,82,0.00,,,0.50,Wunderground v.1.15,2013-06-11 21:27:00,
2013-06-11 17:32:00,73.2,67.0,29.58,West,276,3.0,6.0,81,0.00,,,0.50,Wunderground v.1.15,2013-06-11 21:32:00,
2013-06-11 17:37:00,73.4,67.2,29.58,West,275,3.0,6.0,81,0.00,,,0.50,Wunderground v.1.15,2013-06-11 21:37:00,
2013-06-11 17:43:00,73.4,66.5,29.58,WNW,299,3.0,8.0,79,0.00,,,0.50,Wunderground v.1.15,2013-06-11 21:43:00,
2013-06-11 17:48:00,73.6,67.4,29.58,WNW,300,3.0,8.0,81,0.00,,,0.50,Wunderground v.1.15,2013-06-11 21:48:00,
2013-06-11 17:54:00,73.8,67.2,29.58,West,261,3.0,4.0,80,0.00,,,0.50,Wunderground v.1.15,2013-06-11 21:54:00,
2013-06-11 17:59:00,73.8,66.9,29.59,West,270,4.0,11.0,79,0.00,,,0.50,Wunderground v.1.15,2013-06-11 21:59:00,
2013-06-11 18:05:00,73.7,67.1,29.58,West,273,4.0,5.0,80,0.00,,,0.50,Wunderground v.1.15,2013-06-11 22:05:00,
2013-06-11 18:11:00,73.7,67.1,29.59,NW,324,3.0,3.0,80,0.00,,,0.50,Wunderground v.1.15,2013-06-11 22:11:00,
2013-06-11 18:16:00,73.6,66.7,29.59,NW,308,3.0,4.0,79,0.00,,,0.50,Wunderground v.1.15,2013-06-11 22:16:00,
2013-06-11 18:22:00,73.6,65.9,29.59,WNW,297,4.0,4.0,77,0.00,,,0.50,Wunderground v.1.15,2013-06-11 22:22:00,
2013-06-11 18:27:00,73.6,65.6,29.59,West,264,5.0,12.0,76,0.00,,,0.50,Wunderground v.1.15,2013-06-11 22:27:00,
2013-06-11 18:32:00,73.7,64.9,29.59,WNW,284,5.0,7.0,74,0.00,,,0.50,Wunderground v.1.15,2013-06-11 22:32:00,
2013-06-11 18:38:00,73.7,64.9,29.59,West,264,4.0,9.0,74,0.00,,,0.50,Wunderground v.1.15,2013-06-11 22:38:00,
2013-06-11 18:43:00,73.6,64.8,29.59,WNW,286,4.0,4.0,74,0.00,,,0.50,Wunderground v.1.15,2013-06-11 22:43:00,
2013-06-11 18:48:00,73.6,65.6,29.59,WNW,282,5.0,8.0,76,0.00,,,0.50,Wunderground v.1.15,2013-06-11 22:48:00,
2013-06-11 18:53:00,73.4,65.0,29.60,West,266,6.0,8.0,75,0.00,,,0.50,Wunderground v.1.15,2013-06-11 22:53:00,
2013-06-11 18:58:00,73.3,65.3,29.60,WNW,300,5.0,8.0,76,0.00,,,0.50,Wunderground v.1.15,2013-06-11 22:58:00,
2013-06-11 19:04:00,73.2,64.8,29.60,West,278,3.0,6.0,75,0.00,,,0.50,Wunderground v.1.15,2013-06-11 23:04:00,
2013-06-11 19:10:00,73.2,64.8,29.60,WNW,286,5.0,5.0,75,0.00,,,0.50,Wunderground v.1.15,2013-06-11 23:10:00,
2013-06-11 19:15:00,73.1,63.9,29.60,WNW,290,5.0,5.0,73,0.00,,,0.50,Wunderground v.1.15,2013-06-11 23:15:00,
2013-06-11 19:20:00,73.0,64.2,29.60,West,281,5.0,5.0,74,0.00,,,0.50,Wunderground v.1.15,2013-06-11 23:20:00,
2013-06-11 19:26:00,72.8,63.6,29.60,WNW,298,4.0,10.0,73,0.00,,,0.50,Wunderground v.1.15,2013-06-11 23:26:00,
2013-06-11 19:31:00,72.6,63.8,29.60,West,279,3.0,6.0,74,0.00,,,0.50,Wunderground v.1.15,2013-06-11 23:31:00,
2013-06-11 19:36:00,72.5,63.0,29.61,SW,233,6.0,12.0,72,0.00,,,0.50,Wunderground v.1.15,2013-06-11 23:36:00,
2013-06-11 19:41:00,72.3,62.8,29.61,West,267,7.0,9.0,72,0.00,,,0.50,Wunderground v.1.15,2013-06-11 23:41:00,
2013-06-11 19:47:00,72.1,62.6,29.61,West,268,7.0,14.0,72,0.00,,,0.50,Wunderground v.1.15,2013-06-11 23:47:00,
2013-06-11 19:52:00,72.0,62.5,29.61,West,278,6.0,7.0,72,0.00,,,0.50,Wunderground v.1.15,2013-06-11 23:52:00,
2013-06-11 19:57:00,71.8,62.7,29.61,WNW,300,5.0,11.0,73,0.00,,,0.50,Wunderground v.1.15,2013-06-11 23:57:00,
2013-06-11 20:02:00,71.5,62.4,29.62,WNW,294,5.0,5.0,73,0.00,,,0.50,Wunderground v.1.15,2013-06-12 00:02:00,
2013-06-11 20:08:00,71.2,62.1,29.62,NNW,333,4.0,12.0,73,0.00,,,0.50,Wunderground v.1.15,2013-06-12 00:08:00,
2013-06-11 20:13:00,71.1,62.0,29.62,West,280,4.0,9.0,73,0.00,,,0.50,Wunderground v.1.15,2013-06-12 00:13:00,
2013-06-11 20:18:00,71.0,61.9,29.62,West,272,4.0,9.0,73,0.00,,,0.50,Wunderground v.1.15,2013-06-12 00:18:00,
2013-06-11 20:23:00,70.8,62.1,29.62,West,269,4.0,14.0,74,0.00,,,0.50,Wunderground v.1.15,2013-06-12 00:23:00,
2013-06-11 20:28:00,70.7,62.0,29.62,NW,308,6.0,14.0,74,0.00,,,0.50,Wunderground v.1.15,2013-06-12 00:28:00,
2013-06-11 20:33:00,70.6,61.9,29.63,North,355,6.0,14.0,74,0.00,,,0.50,Wunderground v.1.15,2013-06-12 00:33:00,
2013-06-11 20:39:00,70.4,61.7,29.63,WNW,296,5.0,14.0,74,0.00,,,0.50,Wunderground v.1.15,2013-06-12 00:39:00,
2013-06-11 20:44:00,70.3,61.6,29.63,NW,310,4.0,6.0,74,0.00,,,0.50,Wunderground v.1.15,2013-06-12 00:44:00,
2013-06-11 20:49:00,70.2,61.9,29.63,WSW,248,5.0,9.0,75,0.00,,,0.50,Wunderground v.1.15,2013-06-12 00:49:00,
2013-06-11 20:55:00,70.1,61.0,29.63,WNW,293,6.0,12.0,73,0.00,,,0.50,Wunderground v.1.15,2013-06-12 00:55:00,
2013-06-11 21:00:00,70.0,60.9,29.64,West,280,5.0,8.0,73,0.00,,,0.50,Wunderground v.1.15,2013-06-12 01:00:00,
2013-06-11 21:06:00,69.8,60.8,29.64,WNW,284,5.0,10.0,73,0.00,,,0.50,Wunderground v.1.15,2013-06-12 01:06:00,
2013-06-11 21:11:00,69.7,61.0,29.64,WNW,284,4.0,4.0,74,0.00,,,0.50,Wunderground v.1.15,2013-06-12 01:11:00,
2013-06-11 21:16:00,69.5,60.5,29.64,WNW,292,3.0,4.0,73,0.00,,,0.50,Wunderground v.1.15,2013-06-12 01:16:00,
2013-06-11 21:21:00,69.3,60.7,29.64,West,281,2.0,6.0,74,0.00,,,0.50,Wunderground v.1.15,2013-06-12 01:21:00,
2013-06-11 21:27:00,69.1,60.8,29.65,West,278,4.0,7.0,75,0.00,,,0.50,Wunderground v.1.15,2013-06-12 01:27:00,
2013-06-11 21:34:00,68.8,60.6,29.65,West,278,5.0,8.0,75,0.00,,,0.50,Wunderground v.1.15,2013-06-12 01:34:00,
2013-06-11 21:39:00,68.7,60.5,29.65,West,275,6.0,11.0,75,0.00,,,0.50,Wunderground v.1.15,2013-06-12 01:39:00,
2013-06-11 21:44:00,68.6,60.4,29.65,WNW,296,6.0,7.0,75,0.00,,,0.50,Wunderground v.1.15,2013-06-12 01:44:00,
2013-06-11 21:49:00,68.7,60.8,29.66,WSW,255,5.0,7.0,76,0.00,,,0.50,Wunderground v.1.15,2013-06-12 01:49:00,
2013-06-11 21:55:00,68.7,60.8,29.66,West,279,6.0,12.0,76,0.00,,,0.50,Wunderground v.1.15,2013-06-12 01:55:00,
2013-06-11 22:00:00,68.6,60.7,29.66,West,274,5.0,6.0,76,0.00,,,0.50,Wunderground v.1.15,2013-06-12 02:00:00,
2013-06-11 22:06:00,68.5,60.3,29.66,West,265,5.0,8.0,75,0.00,,,0.50,Wunderground v.1.15,2013-06-12 02:06:00,
2013-06-11 22:11:00,68.4,59.4,29.66,NW,305,6.0,16.0,73,0.00,,,0.50,Wunderground v.1.15,2013-06-12 02:11:00,
2013-06-11 22:16:00,68.4,59.4,29.66,WNW,300,7.0,18.0,73,0.00,,,0.50,Wunderground v.1.15,2013-06-12 02:16:00,
2013-06-11 22:21:00,68.3,58.9,29.66,WNW,287,6.0,7.0,72,0.00,,,0.50,Wunderground v.1.15,2013-06-12 02:21:00,
2013-06-11 22:26:00,68.0,59.0,29.66,NW,312,6.0,14.0,73,0.00,,,0.50,Wunderground v.1.15,2013-06-12 02:26:00,
2013-06-11 22:31:00,67.9,58.9,29.66,West,279,7.0,11.0,73,0.00,,,0.50,Wunderground v.1.15,2013-06-12 02:31:00,
2013-06-11 22:36:00,67.8,58.8,29.66,NW,304,7.0,11.0,73,0.00,,,0.50,Wunderground v.1.15,2013-06-12 02:36:00,
2013-06-11 22:41:00,67.7,58.3,29.66,West,273,7.0,8.0,72,0.00,,,0.50,Wunderground v.1.15,2013-06-12 02:41:00,
2013-06-11 22:47:00,67.5,58.2,29.66,West,280,6.0,17.0,72,0.00,,,0.50,Wunderground v.1.15,2013-06-12 02:47:00,
2013-06-11 22:52:00,67.3,58.0,29.66,West,280,7.0,8.0,72,0.00,,,0.50,Wunderground v.1.15,2013-06-12 02:52:00,
2013-06-11 22:57:00,67.1,57.8,29.66,WNW,296,6.0,12.0,72,0.00,,,0.50,Wunderground v.1.15,2013-06-12 02:57:00,
2013-06-11 23:03:00,67.0,58.1,29.66,West,272,7.0,12.0,73,0.00,,,0.50,Wunderground v.1.15,2013-06-12 03:03:00,
2013-06-11 23:09:00,66.8,57.9,29.66,West,274,5.0,12.0,73,0.00,,,0.50,Wunderground v.1.15,2013-06-12 03:09:00,
2013-06-11 23:15:00,66.7,57.8,29.66,NNW,337,4.0,9.0,73,0.00,,,0.50,Wunderground v.1.15,2013-06-12 03:15:00,
2013-06-11 23:21:00,66.5,57.6,29.66,West,275,5.0,10.0,73,0.00,,,0.50,Wunderground v.1.15,2013-06-12 03:21:00,
2013-06-11 23:27:00,66.5,57.6,29.67,WNW,284,7.0,11.0,73,0.00,,,0.50,Wunderground v.1.15,2013-06-12 03:27:00,
2013-06-11 23:34:00,66.4,57.5,29.67,NW,307,7.0,8.0,73,0.00,,,0.50,Wunderground v.1.15,2013-06-12 03:34:00,
2013-06-11 23:39:00,66.2,57.3,29.67,WNW,302,7.0,11.0,73,0.00,,,0.50,Wunderground v.1.15,2013-06-12 03:39:00,
2013-06-11 23:44:00,66.1,57.2,29.67,WNW,286,6.0,9.0,73,0.00,,,0.50,Wunderground v.1.15,2013-06-12 03:44:00,
2013-06-11 23:50:00,66.0,56.7,29.67,WSW,255,7.0,9.0,72,0.00,,,0.50,Wunderground v.1.15,2013-06-12 03:50:00,
2013-06-11 23:55:00,66.0,56.7,29.67,WSW,249,7.0,11.0,72,0.00,,,0.50,Wunderground v.1.15,2013-06-12 03:55:00,